Zurück zum Katalog

KUIPER-00561

AktivKommunikationLEO
NORAD 69624·PAYLOAD·🇺🇸 United States

Gestartet Jun 17, 2026 von Guiana Space Centre

Loading…

Nächste Überflüge (nächste 24 Stunden)

TLE

AktuellSource: CelesTrak SupGP

Epoche: Sep 14, 2026, 23:41 UTC

1 69624C 26140AJ  26257.98723380  .00001906  00000+0  24918-3 0  2571
2 69624  51.9014 336.0509 0000623 111.4213 181.0190 14.79990406    19

Verfolge KUIPER-00561 in Echtzeit mit AllMySat

Download on the App Store